Tracking 18980 objects as of 22-Feb-2018
HD Live streaming from Space Station
objects crossing your sky now

FENGYUN 1C DEB

Track FENGYUN 1C DEB now!
10-day predictions


NORAD ID: 30069
Int'l Code: 1999-025PW
Perigee: 853.2 km
Apogee: 926.9 km
Inclination: 98.9 °
Period: 102.6 minutes
Semi major axis: 7261 km
RCS: 0.0677 m2 (small)
Launch date: May 10, 1999
Source: People's Republic of China (PRC)
Launch site: Taiyaun Space Center, China (TSC)

Note: This is SATELLITE DEBRIS
aabbcc
Your satellite tracking list
Your tracking list is empty




NASA's NSSDC Master Catalog

Two Line Element Set (TLE):
1 30069U 99025PW  18052.71221462 +.00000407 +00000-0 +28565-3 0  9994
2 30069 098.8824 095.2283 0050742 112.6851 007.4785 14.03141118568475
Source of the keplerian elements: AFSPC